Location: Newark
(41.8083°N, 72.2500°W)
Time: 12:42:55
(UTC+00:00)

S-56A Canister/Altair - All Passes

Search period start: 08 December 2021 00:00
Search period end: 18 December 2021 00:00
Orbit: 633 x 2500 km, 38.9° (Epoch: 07 December)

Date Brightness Start Highest point End Pass type
(mag) Time Alt. Az. Time Alt. Az. Time Alt. Az.
08 Dec - 00:48:06 10° S 00:57:22 22° SE 01:04:57 10° E visible
08 Dec - 02:50:23 10° SW 03:02:14 48° SSE 03:10:23 10° E visible
08 Dec - 04:56:26 10° WSW 05:07:01 71° S 05:13:51 10° E night (unlit)
08 Dec - 07:03:06 10° W 07:11:14 61° SSW 07:16:42 10° ESE night (unlit)
08 Dec - 09:09:37 10° W 09:14:11 21° SW 09:17:55 10° SSE visible
09 Dec - 00:15:23 10° S 00:24:17 20° SE 00:31:48 10° E visible
09 Dec - 02:16:56 10° SW 02:29:11 46° SSE 02:37:49 10° E visible
09 Dec - 04:22:48 10° WSW 04:34:08 70° S 04:41:28 10° E night (unlit)
09 Dec - 06:29:40 10° W 06:38:35 65° SSW 06:44:27 10° ESE night (unlit)
09 Dec - 08:36:14 10° W 08:41:46 26° SW 08:46:03 10° SSE visible
09 Dec - 23:42:53 10° S 23:51:11 18° SE 23:58:26 10° E visible
10 Dec - 01:43:33 10° SW 01:56:04 43° SSE 02:05:10 10° E visible
10 Dec - 03:49:09 10° WSW 04:01:11 69° S 04:09:03 10° E visible
10 Dec - 05:56:08 10° W 06:05:52 69° S 06:12:10 10° ESE night (unlit)
10 Dec - 08:02:50 10° W 08:09:19 32° SSW 08:14:05 10° SSE visible
10 Dec - 23:10:38 10° SSE 23:18:04 16° SE 23:24:48 10° ESE visible
11 Dec - 01:10:13 10° SSW 01:22:54 41° SSE 01:32:28 10° E visible
11 Dec - 03:15:29 10° WSW 03:28:09 68° SSE 03:36:34 10° E visible
11 Dec - 05:22:32 10° W 05:33:04 72° S 05:39:50 10° ESE night (unlit)
11 Dec - 07:29:24 10° W 07:36:49 38° SSW 07:42:02 10° SE night (unlit)
11 Dec - 22:38:46 10° SSE 22:44:59 14° SE 22:50:46 10° ESE visible
12 Dec - 00:36:58 10° SSW 00:49:43 38° SSE 00:59:39 10° E visible
12 Dec - 02:41:49 10° WSW 02:55:03 66° SSE 03:04:03 10° E visible
12 Dec - 04:48:52 10° W 05:00:12 74° S 05:07:29 10° ESE night (unlit)
12 Dec - 06:55:55 10° W 07:04:15 44° SSW 07:09:56 10° SE night (unlit)
12 Dec - 09:05:28 10° WSW 09:06:33 10° SW 09:07:36 10° SW visible
12 Dec - 22:07:39 10° SSE 22:11:53 12° SE 22:15:57 10° ESE visible
13 Dec - 00:03:49 10° SSW 00:16:29 36° SE 00:26:44 10° E visible
13 Dec - 02:08:10 10° WSW 02:21:52 64° SSE 02:31:28 10° E visible
13 Dec - 04:15:09 10° W 04:27:15 76° S 04:35:04 10° E visible
13 Dec - 06:22:21 10° W 06:31:36 51° SSW 06:37:46 10° SE night (unlit)
13 Dec - 08:30:33 10° WSW 08:34:09 14° SW 08:37:14 10° SSW night (unlit)
13 Dec - 23:30:47 10° SSW 23:43:13 33° SE 23:53:43 10° E visible
14 Dec - 01:34:35 10° SW 01:48:38 61° SSE 01:58:49 10° E visible
14 Dec - 03:41:24 10° W 03:54:12 77° S 04:02:37 10° E visible
14 Dec - 05:48:44 10° W 05:58:54 56° SSW 06:05:33 10° SE night (unlit)
14 Dec - 07:56:32 10° W 08:01:44 19° SW 08:05:53 10° S night (unlit)
14 Dec - 22:57:53 10° SSW 23:09:58 31° SE 23:20:33 10° E visible
15 Dec - 01:01:03 10° SW 01:15:20 59° SSE 01:26:07 10° E visible
15 Dec - 03:07:38 10° W 03:21:05 77° S 03:30:07 10° E visible
15 Dec - 05:15:04 10° W 05:26:06 62° SSW 05:33:17 10° ESE night (unlit)
15 Dec - 07:22:42 10° W 07:29:16 24° SW 07:34:13 10° S night (unlit)
15 Dec - 22:25:09 10° S 22:36:43 28° SE 22:47:14 10° E visible
16 Dec - 00:27:36 10° SW 00:42:00 56° SSE 00:53:18 10° E visible
16 Dec - 02:33:53 10° WSW 02:47:53 76° S 02:57:33 10° E visible
16 Dec - 04:41:20 10° W 04:53:12 66° SSW 05:00:57 10° ESE visible
16 Dec - 06:48:56 10° W 06:56:44 29° SW 07:02:23 10° SSE night (unlit)
16 Dec - 21:52:36 10° S 22:03:30 25° SE 22:13:45 10° E visible
16 Dec - 23:54:15 10° SW 00:08:38 53° SSE 00:20:25 10° E visible
17 Dec - 02:00:09 10° WSW 02:14:36 76° S 02:24:56 10° E visible
17 Dec - 04:07:35 10° W 04:20:13 70° SSW 04:28:33 10° ESE visible
17 Dec - 06:15:10 10° W 06:24:09 35° SW 06:30:27 10° SSE night (unlit)
17 Dec - 21:20:15 10° S 21:30:18 22° SE 21:40:02 10° E daylight
17 Dec - 23:21:00 10° SW 23:35:13 50° SSE 23:47:25 10° E visible
